This is the latest recevied weather packets stored in our database for station/object R1CBW-13. If no packets are shown the sender has not sent any weather packets the latest 10 day(s).
| Time | Temp. | Humidity | Pressure | Rain* | Wind** | Luminosity | Snow |
|---|---|---|---|---|---|---|---|
| 1778233092 | 11.67° C | 33% | 1021.9 hPa | 0 mm | - | - | - |
| 1778233032 | 12.22° C | 35% | 1021.8 hPa | 0 mm | - | - | - |
| 1778232972 | 12.22° C | 35% | 1021.8 hPa | 0 mm | - | - | - |
| 1778232912 | 11.67° C | 32% | 1021.8 hPa | 0 mm | - | - | - |
| 1778232852 | 11.67° C | 33% | 1021.8 hPa | 0 mm | - | - | - |
| 1778232792 | 11.11° C | 31% | 1021.8 hPa | 0 mm | - | - | - |
| 1778232732 | 11.67° C | 30% | 1021.8 hPa | 0 mm | - | - | - |
| 1778232672 | 11.67° C | 29% | 1021.8 hPa | 0 mm | - | - | - |
| 1778232612 | 10.56° C | 30% | 1021.8 hPa | 0 mm | - | - | - |
| 1778232492 | 11.11° C | 29% | 1021.8 hPa | 0 mm | - | - | - |
| 1778232432 | 11.11° C | 29% | 1021.8 hPa | 0 mm | - | - | - |
| 1778232372 | 11.11° C | 29% | 1021.8 hPa | 0 mm | - | - | - |
| 1778232312 | 11.11° C | 29% | 1021.9 hPa | 0 mm | - | - | - |
| 1778232252 | 10.56° C | 30% | 1021.9 hPa | 0 mm | - | - | - |
| 1778232192 | 11.11° C | 30% | 1021.9 hPa | 0 mm | - | - | - |
| 1778232132 | 11.11° C | 29% | 1021.9 hPa | 0 mm | - | - | - |
| 1778232072 | 10.56° C | 29% | 1022 hPa | 0 mm | - | - | - |
| 1778232012 | 11.11° C | 29% | 1021.8 hPa | 0 mm | - | - | - |
| 1778231952 | 11.11° C | 29% | 1021.8 hPa | 0 mm | - | - | - |
| 1778231892 | 11.11° C | 29% | 1021.8 hPa | 0 mm | - | - | - |
| 1778231832 | 10.56° C | 28% | 1021.7 hPa | 0 mm | - | - | - |
| 1778231772 | 10.56° C | 29% | 1021.8 hPa | 0 mm | - | - | - |
| 1778231712 | 11.67° C | 28% | 1022 hPa | 0 mm | - | - | - |
| 1778231652 | 11.11° C | 29% | 1021.9 hPa | 0 mm | - | - | - |
| 1778231592 | 10.56° C | 29% | 1021.9 hPa | 0 mm | - | - | - |
* Rain latest hour (hover to see other rain measurements)
** Current wind speed in m/s (hover to see current wind gust speed)